sat.trackr.live / text

‹ back to catalog

STARLINK-34681

NORAD 66438 · 2025-259S

PAYLOAD ACTIVE UNKNOWN

§ Identity

Operator
Country
US
Launch date
2025-11-11
Launch site
AFETR
Launch vehicle
Mass (kg)
RCS (m²)

Purposes: comms

External: N2YO · Heavens-Above · Gunter

§ Orbital elements

Epoch: 2026-05-25T05:05:30.128064Z

Period
94.27 min
Inclination
43.0006°
Eccentricity
0.0001321
Mean motion
15.27585937 rev/d
Perigee alt
482.1 km
Apogee alt
483.9 km
Semi-major
6,861.2 km
B*
2.5090e-4
RAAN
202.2505°
Arg perigee
266.5401°
Mean anomaly
93.5299°
Rev number
3,108

§ Raw data

STARLINK-346811 66438U 25259S   26145.21215426  .00006650  00000+0  25090-3 0  99962 66438  43.0006 202.2505 0001321 266.5401  93.5299 15.27585937 31080

JSON: /api/v1/satellites/66438 · /tle

For live sub-satellite position, see the globe view (requires WebGL).

§ Visibility from observer

Set your observer location to see the next 7 days of passes ≥ 10°. The values pass through the URL so the page stays shareable.

No JS? Fill the form by hand. The geolocation button needs JavaScript.